Location: Achiet-le-Grand
(50.1307°N, 2.7812°E)
Time: 22:25:49
(UTC+00:00)

Daily predictions for brighter satellites

Satellite Brightness Start Highest point End
(mag) Time Altitude Azimuth Time Altitude Azimuth Time Altitude Azimuth
Cosmos 1758 Rocket 3.5 16:17:21 10° N 16:21:41 79° E 16:25:57 10° SSE
Lacrosse 4 Rocket 3.2 16:20:19 10° W 16:23:30 22° NW 16:26:40 10° NNE
Cosmos 2098 Rocket 3.4 16:19:21 10° S 16:23:39 57° E 16:28:41 10° NNE
USA 290 2.6 16:21:59 10° NNW 16:25:14 69° WSW 16:28:27 10° SSE
Cosmos 2208 Rocket 4.5 16:20:37 10° NNW 16:25:45 67° WSW 16:30:54 10° S
Cosmos 1782 2.5 16:23:00 10° S 16:26:35 71° E 16:30:10 10° NNE
Cosmos 1933 4.3 16:23:51 10° SE 16:27:00 25° E 16:30:10 10° NE
Cosmos 2227 Rocket 2.3 16:23:39 10° NNW 16:29:15 57° NE 16:34:48 10° SE
Meteor 1-28 Rocket 3.5 16:26:46 10° NNE 16:29:56 38° E 16:33:03 10° SSE
Cosmos 2369 Rocket 4.1 16:28:25 10° W 16:32:27 19° NW 16:36:30 10° N
CBERS-1 4.0 16:27:43 10° SSE 16:32:49 75° ENE 16:37:56 10° NNW
Cosmos 783 Rocket 4.5 16:27:52 10° NNW 16:33:12 72° ENE 16:38:28 10° SSE
CENTAUR R/B 3.5 16:35:07 10° W 16:40:54 41° NNW 16:48:06 10° NE
Cosmos 2180 Rocket 4.5 16:34:56 10° S 16:41:00 69° E 16:47:09 10° NNE
Cosmos 1697 Rocket 3.0 16:36:18 10° S 16:41:38 48° ESE 16:47:02 10° NE
Cosmos 1626 Rocket 4.3 16:38:39 10° NNW 16:42:53 55° W 16:47:04 10° S
Cosmos 2360 4.3 16:37:29 10° SSW 16:43:13 87° WNW 16:49:00 10° NNE
CZ-2D R/B 3.6 16:41:55 10° SE 16:44:40 28° ENE 16:47:25 10° N
Cosmos 1538 Rocket 4.5 16:40:17 10° NNW 16:45:16 40° ENE 16:50:15 10° SE
NOSS 2-3 (C) 4.5 16:42:49 10° S 16:45:31 22° ESE 16:47:48 13° ENE
Cosmos 2266 Rocket 3.9 16:42:34 10° N 16:48:44 73° E 16:54:46 10° SSE
Cosmos 1656 4.2 16:45:29 10° SW 16:51:04 61° WNW 16:56:44 10° NNE
Cosmos 2228 4.4 16:48:04 10° SW 16:52:01 37° WNW 16:56:00 10° N
Cosmos 1606 Rocket 3.9 16:48:41 10° SSE 16:52:53 45° E 16:57:07 10° NNE
Cosmos 1503 Rocket 4.0 16:49:56 10° SSW 16:55:09 82° ESE 17:00:23 10° NNE
Lacrosse 5 rocket 2.3 16:53:14 10° WNW 16:56:30 28° N 16:58:51 15° NE
UNK 3.8 16:54:21 10° NNE 16:58:52 55° E 17:03:19 10° S
CZ-4C R/B 3.5 16:52:13 10° NW 16:59:07 65° SW 17:07:39 10° SSE
Cosmos 1484 Rocket 3.6 16:56:31 10° S 16:59:56 49° W 17:03:20 10° NNW
Radarsat 4.5 16:55:50 10° SSE 17:00:59 72° ENE 17:06:10 10° NNW
Thor Agena Rocket 3.6 16:55:56 10° SSE 17:01:08 88° W 17:06:18 10° NNW
Cosmos 1743 3.7 16:58:05 10° NNW 17:01:11 41° W 17:04:15 10° SSW
Cosmos 1544 Rocket 4.4 16:58:02 10° SSW 17:02:20 52° WNW 17:06:41 10° N
IRS-P3 4.3 16:58:45 10° SE 17:03:51 49° ENE 17:08:58 10° N
NOSS 2-3 (D) 3.7 17:01:16 10° SSW 17:04:44 40° SE 17:07:02 19° ENE
NOSS 2-3 (E) 3.6 17:01:53 10° SSW 17:05:22 43° SE 17:07:43 19° ENE
Cosmos 1354 Rocket 4.0 17:00:57 10° SSW 17:06:11 73° ESE 17:11:26 10° NNE
IGS 5A 4.1 17:03:31 10° S 17:07:24 55° W 17:11:20 10° NNW
NOSS 2-2 (D) 4.4 17:05:19 10° W 17:07:59 25° NW 17:10:11 12° NNE
Cosmos 1777 Rocket 4.3 17:03:12 10° SSW 17:08:26 70° WNW 17:13:40 10° NNE
Cosmos 2151 3.7 17:05:12 10° NNW 17:09:17 55° W 17:13:21 10° S
Cosmos-2242 4.1 17:06:28 10° SE 17:09:50 23° E 17:11:23 19° ENE
USA 238 DEB 4.0 17:04:27 10° S 17:10:07 42° ESE 17:14:48 17° ENE
USA 238 4.0 17:04:34 10° S 17:10:15 42° ESE 17:14:54 17° ENE
MOS 1 Rocket 3.5 17:05:51 10° SSE 17:10:45 58° ENE 17:15:56 10° N
Cosmos 1898 Rocket 4.4 17:09:45 10° SSE 17:14:04 28° E 17:16:31 19° ENE
Gbstr 26 Del rocket 2.9 17:10:11 10° WSW 17:14:16 63° SSE 17:16:29 23° E
Cosmos 1726 Rocket 3.7 17:10:52 10° S 17:15:24 57° E 17:19:53 10° NNE
ERS-1 4.4 17:11:53 10° SSE 17:16:50 70° ENE 17:21:47 10° N
USA 215 3.7 17:12:07 17° ENE 17:17:06 50° N 17:23:22 10° WNW
Cosmos 2082 4.0 17:12:14 10° NNW 17:17:45 46° NE 17:23:14 10° SE
AQUARIUS 4.0 17:13:58 10° SSE 17:18:19 67° ENE 17:22:43 10° N
SMAP 3.3 17:15:02 10° S 17:19:40 73° WSW 17:24:21 10° NNW
Cosmos 1805 3.7 17:17:21 10° N 17:20:21 28° ENE 17:23:19 10° SE
Cosmos 2297 Rocket 4.2 17:16:23 10° NW 17:21:19 31° WSW 17:26:13 10° SSW
GEOS 3 Rocket 3.8 17:19:09 18° NE 17:23:12 64° SE 17:28:32 10° SSW
Landsat 7 3.8 17:19:08 10° SSE 17:23:47 84° WSW 17:28:29 10° NNW
YAOGAN 1 3.1 17:22:47 10° SE 17:26:36 33° ENE 17:30:26 10° N
Cosmos 923 Rocket 4.4 17:21:54 10° NNW 17:26:48 39° ENE 17:31:38 10° SE
Cosmos 1937 Rocket 4.3 17:25:16 10° SSE 17:29:37 28° E 17:30:51 25° ENE
SL-16 R/B 4.1 17:28:48 10° SE 17:29:26 11° ESE 17:29:26 11° ESE
Cosmos 990 Rocket 4.0 17:28:27 10° SSW 17:33:35 81° WNW 17:38:14 13° NNE
Cosmos 1461 3.9 17:30:18 10° WSW 17:33:57 37° NW 17:36:23 18° NNE
CZ-2D R/B 3.7 17:30:40 10° SE 17:34:39 45° ENE 17:38:35 10° N
SL-16 R/B 3.3 17:28:51 10° N 17:34:51 51° WNW 17:40:47 10° SW
SKYMED 2 3.9 17:35:14 27° NE 17:37:06 41° E 17:41:13 10° S
COSMOS 2455 4.0 17:33:40 10° SSE 17:38:11 23° ESE 17:38:36 22° E
Meteor 2-2 Rocket 4.5 17:33:18 10° SSE 17:38:36 44° E 17:42:46 16° NNE
Okean 1 3.9 17:35:47 10° SSE 17:38:21 30° ESE 17:38:21 30° ESE
Cosmos 1844 Rocket 3.3 17:39:37 10° NNW 17:44:44 33° NE 17:45:49 31° ENE
Cosmos 2219 3.1 17:39:13 10° NNW 17:44:59 81° ENE 17:50:45 10° SSE
SJ-6F 4.4 17:41:03 10° S 17:45:02 78° WSW 17:49:05 10° NNW
Cosmos 1980 Rocket 2.1 17:40:21 10° SSW 17:45:57 69° ESE 17:49:21 25° NE
Cosmos 1953 Rocket 3.7 17:42:46 10° NNW 17:47:13 75° W 17:51:40 10° S
Aureole 1 Rocket 3.4 17:43:17 10° SSW 17:47:54 70° ESE 17:51:47 21° NNE
Meteor 1-26 Rocket 4.2 17:43:57 10° S 17:49:11 54° E 17:52:48 20° NNE
PSLV R/B 3.5 17:49:59 41° ESE 17:50:44 47° ENE 17:54:39 10° N
ARIANE 5 R/B 3.4 17:47:54 10° S 17:52:50 51° W 17:57:52 10° NNW
Cosmos 2263 Rocket 2.6 17:47:30 10° NW 17:53:07 65° WSW 17:58:44 10° SSE
SL-19 R/B 4.2 17:48:21 10° SE 17:53:41 58° ENE 17:59:21 10° N
BREEZE-M DEB (TANK) 3.8 17:54:22 10° SW 17:57:14 24° SSE 17:57:14 24° SSE
COSMO-SKYMED 1 3.0 17:59:08 40° SE 17:59:08 40° SE 18:02:23 10° S
Cosmos 1680 Rocket 3.6 17:53:26 10° NNW 17:58:33 51° ENE 18:00:24 35° ESE
BREEZE-M DEB (TANK) 4.0 17:55:51 10° W 17:59:27 73° SSW 18:06:53 20° ESE
NOSS 3-2 (C) 4.0 17:54:36 10° WSW 17:59:43 46° NNW 18:03:20 23° NNE
NOAA 15 4.5 17:55:45 10° SSE 18:01:02 78° ENE 18:06:20 10° NNW
Cosmos 1076 Rocket 4.5 17:57:39 10° NNW 18:01:49 48° W 18:05:58 10° SSW
Meteor 2-10 4.2 17:56:41 10° NNW 18:02:05 78° W 18:07:39 10° S
NOAA 6 4.0 17:58:02 10° SE 18:03:00 55° ENE 18:07:59 10° N
Cosmos 2369 3.8 17:58:04 10° S 18:03:38 55° ESE 18:05:20 41° ENE
Resurs 01 Rocket 4.0 18:11:53 11° N 18:11:53 11° N 18:12:03 10° N
USA 81 4.2 18:05:58 10° N 18:11:13 72° W 18:16:27 10° S
Cosmos 44 Rocket 3.6 18:06:48 10° NNW 18:11:47 49° NE 18:11:53 49° NE
Cosmos 2227 Rocket 4.2 18:08:12 10° NW 18:12:56 28° WSW 18:17:40 10° SSW
SPOT 1/Viking Rocket 4.0 18:11:43 10° S 18:16:52 64° WSW 18:22:04 10° NNW
Cosmos 2058 Rocket 3.5 18:19:46 10° SSW 18:24:12 62° WNW 18:26:26 28° N
Cosmos 1697 Rocket 3.9 18:20:37 10° WSW 18:25:45 36° NW 18:29:16 19° N
OceanSat 1 rocket 4.5 18:21:43 10° SSE 18:26:28 88° WSW 18:31:11 10° NNW
USA 281 4.5 18:28:12 23° NNE 18:28:12 23° NNE 18:32:00 10° NNW
Cosmos 2333 Rocket 4.2 18:28:36 10° SSE 18:29:35 14° SSE 18:29:35 14° SSE
CENTAUR R/B 4.0 18:27:31 10° WNW 18:33:31 30° N 18:35:36 26° NNE
Meteor 2-11 Rocket 4.4 18:27:59 10° N 18:34:11 89° W 18:40:20 10° S
Lacrosse 5 rocket 3.1 18:30:48 10° NW 18:32:26 22° NW 18:32:26 22° NW
Cosmos 2278 Rocket 4.4 18:32:03 10° N 18:32:43 11° N 18:32:43 11° N
NOSS 2-3 (C) 4.4 18:32:07 10° WSW 18:34:53 37° WNW 18:34:53 37° WNW
Meteor 1-14 Rocket 4.1 18:32:36 10° N 18:38:24 78° ENE 18:39:10 66° SE
Cosmos-2242 4.3 18:42:40 10° SW 18:46:39 39° WNW 18:47:46 33° NW
Cosmos 1898 Rocket 4.2 18:50:49 10° SW 18:55:49 49° WNW 18:56:44 43° NNW
Cosmos 1844 4.0 18:50:11 10° NNW 18:54:37 57° NNW 18:54:37 57° NNW
USA 215 3.4 18:59:28 58° NNE 18:59:35 58° NNE 19:05:59 10° WNW
Cosmos 2112 Rocket 4.3 18:55:04 10° NNW 18:59:47 63° W 18:59:47 63° W
USA 238 DEB 4.0 18:54:45 10° WSW 19:00:52 56° NW 19:02:15 48° N
USA 238 4.0 18:54:50 10° WSW 19:00:59 56° NW 19:02:21 48° N
Cosmos 1553 Rocket 4.5 18:55:03 10° SSW 19:01:07 57° WNW 19:07:21 10° N
YAOGAN 1 4.4 18:58:44 10° SSW 19:02:27 29° W 19:06:13 10° NNW
BREEZE-M DEB (TANK) 4.1 19:01:47 10° SW 19:06:16 40° SSW 19:06:16 40° SSW
Cosmos 1937 Rocket 4.3 19:06:15 10° SW 19:10:58 48° WNW 19:10:58 48° WNW
SL-16 R/B 3.7 19:08:52 10° SSW 19:11:20 27° SSW 19:11:20 27° SSW
Cosmos 1745 Rocket 4.3 19:10:06 10° NNW 19:16:12 63° W 19:22:13 10° S
COSMOS 2455 3.5 19:17:26 10° SW 19:21:46 50° SW 19:21:46 50° SW
Cosmos 1844 Rocket 3.6 19:23:22 10° NW 19:27:31 44° WNW 19:27:31 44° WNW
Cosmos 1980 Rocket 3.8 19:25:37 10° WSW 19:30:26 28° NW 19:31:07 27° NNW
CENTAUR R/B 4.4 20:19:00 10° NW 20:22:41 29° NNW 20:22:41 29° NNW
